Погода в Сеймчане

Погода в Сеймчане : погода сейчас, прогноз погоды и архив. Всё, что Вы хотите узнать о погоде в Сеймчане!

Хотите узнать прогноз погоды в Сеймчане? Тогда Вам сюда: Погода в Сеймчане

Поиск расширенной информации на нашем сайте:

Другие новости

Новости СМИ2

Главная страница сайта

Новости сайта

03.07.2017

Напоминаем, что на нашем специализированном сайте Метеоцентр.Азия вы можете получить высокодетализированные автоматические прогнозы погоды по пунктам России, СНГ и мира в авиационном формате (включающие направление и скорость ветра, видимость, явления погоды, количество и форму облачности, нижнюю и верхнюю границу облачности).

Рекомендуем: Если плохие окна необходимо грамотно выбрать нащельник со склада.

Погода в Сеймчане - сегодня

Время (UTC), дата Ветер
(°,м/с) 
Видим.   Явления Облачность Т
(°С)
Тd
(°С)
f(%) Тe
(°С)
Pmin
(гПа)
dP
(гПа)
Po
(мм)
O2
(г/м3)
Тmin Tmax R s Состояние
почвы
21 12.08.18 тихо ()   4000 м  дымка  4/0 средняя, верхняя 
[Ac trans|Ci fib]
+8.4 +7.9 97 +8  1013.6  0.5  741  288  +3        влажная 
00 13.08.18 060 (СВ) 20000 м    4/3 1000 м средняя 
[Cu med, cong|Ac trans]
+17.5 +10.5 63 +21  1012.5  -0.2  741  279           
03 13.08.18 320 (СЗ) 20000 м    4/4 1000 м 
[Cu med, cong]
+22 +6.3 36 +22  1011.6  -0.6  741  275           
06 13.08.18 050 (СВ) 20000 м    3/3 1000 м 
[Cu med, cong]
+22.3 +3.6 29 +22  1011.7  0.1  741  275           
12 13.08.18 тихо ()   20000 м    4/4 1000 м 
[Sc]
+7.5 +6.6 94 +8  1015.9  1.7  743  290           
15 13.08.18 050 (СВ) 20000 м    3/3 1000 м 
[Sc]
+5.3 +4.7 96 +6  1017.2  1.1  744  293           
18 13.08.18 290 (З) 20000 м    3/3 1000 м 
[Sc]
+2.6 +2.1 96 +3  1019  1.4  745  297           
00 14.08.18 090 (В) 20000 м    4/1 1000 м средняя, верхняя 
[Sc|Ac trans|Ci fib]
+19.7 +7.4 45 +21  1019.3  0.3  746  279           
03 14.08.18 080 (В) 20000 м    6/3 1000 м средняя, верхняя 
[Cu med, cong|Ac trans|Ci fib]
+22.1 +5.5 34 +22  1018.7  -0.3  746  277           
06 14.08.18 150 (ЮВ) 20000 м    9/6 1000 м кучево-дожд., средняя 
[Cb calv|Ac trans]
+18.9 +7.5 47 +20  1020  746  280           
12 14.08.18 300 (СЗ) 20000 м  {ливн. осадки}  5/3 1000 м средняя 
[Sc|Ac trans]
+8 +7.3 95 +9  1023.8  1.1  749  292           
15 14.08.18 тихо ()   20000 м    4/1 1000 м средняя 
[Sc|Ac trans]
+4 +3.5 97 +4  1025  0.8  749  297           
18 14.08.18 тихо ()   20000 м  местами туман поземный  ясно 
+1.1 +0.6 96 +1  1026.3  750  301           
00 15.08.18 100 (В) 20000 м  {туман}  ясно 
+14.4 +9.4 72 +16  1025.3  -0.6  750  285           
03 15.08.18 170 (Ю) 20000 м    ясно 
+20.5 +3.5 33 +21  1022.9  -1.9  749  280           
06 15.08.18 190 (Ю) 20000 м    ясно 
+21.2 +2.4 29 +21  1020.8  -2  747  279           
12 15.08.18 290 (З) 20000 м    ясно 
+5.5 +4.7 95 +6  1020.7  -0.4  746  294           
15 15.08.18 290 (З) 20000 м    ясно 
+1.7 +1.1 96 +2  1020.6  -0.4  746  298           
18 15.08.18 тихо ()   20000 м    ясно 
-0.7 -1.2 96 -1  1020  -0.8  745  301           
00 16.08.18 190 (Ю) 20000 м    ясно 
+17.3 +7.5 52 +18  1015.6  -1.9  743  280           
03 16.08.18 190 (Ю) 20000 м    ясно 
+22.9 +6.4 34 +23  1012.5  -2.7  741  275           
06 16.08.18 160 (Ю) 20000 м    1/0 верхняя 
[Ci fib]
+23.8 +5 30 +24  1010.2  -2.1  740  273           
12 16.08.18 тихо ()   20000 м    ясно 
+7 +6 93 +7  1010.1  -0.3  739  289           
15 16.08.18 тихо ()   20000 м    ясно 
+3.2 +2.5 95 +3  1009.7  -0.8  738  293           
18 16.08.18 220 (ЮЗ) 20000 м    4/0 верхняя 
[Ci fib]
+1.1 +0.5 96 +2  1009.7  -0.2  738  296           
Время (UTC), дата Ветер
(°,м/с) 
Видим.   Явления Облачность Т
(°С)
Тd
(°С)
f(%) Тe
(°С)
Pmin
(гПа)
dP
(гПа)
Po
(мм)
O2
(г/м3)
Тmin Tmax R s Состояние
почвы

Для получения пояснительной информации подведите курсор к названию столбца.

ПОГОДА в Сеймчане - архив

Всё, что Вы хотите узнать о погоде в Сеймчане - удобно и подробно!

Выберите нужную дату (начиная с 1 января 2015* года) и нажмите кнопку "Найти".
Будут отображены архивные сводки погоды по пункту Сеймчан, начиная с указанной даты.


Отображать данные в формате CSV (для использования в таблицах Excel)


Внимание! Наш архив погоды предназначен исключительно для личного некоммерческого использования в познавательных целях. Если Вам необходимы официальные справки о состоянии погоды (для производственных, юридических, коммерческих и т.п. целей), обращайтесь в органы Росгидромета.

*Примечание: данная дата относится к архиву по метеостанциям СССР (Россия, СНГ, Балтия).
Архив по метеостанциям Зарубежной Европы и Азии (кроме Китая) хранится 10 дней, по другим регионам земного шара (Китай, Африка, Америка, Австралия, Океания) - 1 день.

Сеймчан - район местоположения метеостанции


Название, широта, долгота, высота метеостанции:
Сеймчан 62.9°ш. 152.4°д. 205 м над ур. моря [Российская Федерация]

Дополнительная информация

В oтличие oт бoльшинства пoгoдных сайтoв мы публикуем пoдрoбную метеoинфoрмацию в детальнoм прoфессиoнальнoм фoрмате.

Характеристики температуры и влажнoсти вoздуха измеряются на высoте 2 м в тени вдали oт зданий и деревьев.
Скoрoсть ветра измеряется на высoте 10 м (на урoвне рoста челoвека скoрoсть ветра ниже в 1.5-2 раза). Если метеoстанция нахoдится в гoрoде или в лесу, тo скoрoсть ветра занижена на 2-4 м/с пo сравнению с oткрытым местoм. Скoрoсть ветра над акватoриями крупных рек и oзёр, а также на вершинах хoлмoв на 2-5 м/с выше, чем в oбычных услoвиях.
Атмoсфернoе давление в разных тoчках местнoсти мoжет значительнo oтличаться oт давления на метеoстанции, в зависимoсти oт услoвий рельефа (при пoдъёме на 10 м давление пoнижается примернo на 1 мм рт.ст.).